Regional Weather Roundup
Issued by NWS

Home | Current Version | Previous Version | Text Only | Print | Product List | Glossary Off
Versions: 1 2 3 4 5 6 7 8 9 10 11 12 13 14 15 16 17 18 19 20 21 22 23 24 25 26 27 28 29 30 31 32 33 34 35 36 37 38 39 40 41 42 43 44 45 46 47 48 49 50

000
ASUS43 KMPX 201210
RWRMN
WEATHER ROUNDUP FOR MINNESOTA
NATIONAL WEATHER SERVICE TWIN CITIES/CHANHASSEN MN
600 AM CST MON FEB 20 2017


NOTE: "FAIR" INDICATES FEW OR NO CLOUDS BELOW 12,000 FEET WITH NO
SIGNIFICANT WEATHER AND/OR OBSTRUCTIONS TO VISIBILITY. N/A MEANS
CURRENT SKY AND/OR WEATHER CONDITIONS ARE NOT AVAILABLE.

MNZ060>063-068>070-201300-
   Twin Cities Metro

CITY           SKY/WX    TMP DP  RH WIND       PRES   REMARKS
TWIN CITIES    CLOUDY    50  43  77 SE12      29.83F
6HR MIN TEMP:  48; 6HR MAX TEMP:  52;

ST PAUL        CLOUDY    49  43  80 SE14      29.84F
CRYSTAL        CLOUDY    64  42  44 SE12      29.81F
BLAINE         CLOUDY    52  45  76 SE13G18   29.81F
LAKEVILLE      CLOUDY    46  45  93 SE5       29.84S
EDEN PRAIRIE   CLOUDY    49  43  80 E7        29.80F
6HR MIN TEMP:  49; 6HR MAX TEMP:  53;

SOUTH ST PAUL  CLOUDY    49  41  75 SE6       29.84F
LAKE ELMO      FAIR      50  43  76 SE10      29.85F
$$
MNZ001>005-007-008-013>017-022>024-027-028-201300-
   Northwest Minnesota

CITY           SKY/WX    TMP DP  RH WIND       PRES   REMARKS
BEMIDJI        CLOUDY    41  38  89 S7        29.71R
HALLOCK        CLOUDY    43  39  87 SE16      29.57F
ROSEAU         CLOUDY    41  36  81 SE6       29.65R
WARROAD        RAIN      41  37  87 SE6       29.67R
THIEF RVR FALL CLOUDY    41  40  96 SE10      29.61F FOG
CROOKSTON      MOCLDY    45  43  93 S10       29.60F FOG
FOSSTON        DRIZZLE   45  43  93 E9        29.62F
DETROIT LAKES  RAIN      45  45 100 SE15G21   29.65R
MOORHEAD       DRIZZLE   50  46  87 SE18G24   29.61F
PARK RAPIDS    CLOUDY    44  39  82 SE10      29.69F
MAHNOMEN       CLOUDY    47  46  94 SE17G25   29.64F
$$
MNZ006-009>011-018-025>026-201300-
   North Central Minnesota

CITY           SKY/WX    TMP DP  RH WIND       PRES   REMARKS
BAUDETTE       CLOUDY    40  33  76 SE9       29.69R
FLAG ISLAND    CLOUDY    39  32  75 SE8       29.67F
INTL FALLS     LGT RAIN  45  35  68 S7        29.77R
6HR MIN TEMP:  39; 6HR MAX TEMP:  45; 6HR PCP: TRACE;

WASKISH        DRIZZLE   43  39  87 SE10      29.70F
BIG FORK       MOCLDY    43  36  75 SE8G16    29.76R
LONGVILLE      CLOUDY    43  37  81 SE5       29.75F
GRAND RAPIDS   CLOUDY    41  35  79 SE12      29.80S
CRANE LAKE     MOCLDY    43  34  70 SE3       29.83F
ORR            MIX PCPN  43  34  70 SE7       29.75F
COOK           LGT RAIN  43  37  81 E8        29.81F
WALKER         FAIR      43  38  80 SE6       29.71F
$$
MNZ012-019>021-037-201300-
   Northeast Minnesota

CITY           SKY/WX    TMP DP  RH WIND       PRES   REMARKS
DULUTH         CLOUDY    40  33  76 E16       29.87F
6HR MIN TEMP:  37; 6HR MAX TEMP:  40;

ELY            CLOUDY    39  32  75 SE7       29.88S
HIBBING        CLOUDY    40  34  79 SE14      29.81F
EVELETH        PTCLDY    44  31  61 E6        29.85F
DULUTH HARBOR  CLOUDY    36  34  93 NE18      29.91F
TWO HARBORS    CLOUDY    43  34  70 NE6       29.90S
GRAND MARAIS     N/A     39  31  72 NE13G22   30.04R
G MARAIS ARPRT CLOUDY    34  27  75 E8        30.01S WCI  27
$$
MNZ029>031-032-039>041-046>048-054>057-064-201300-
   West Central Minnesota

CITY           SKY/WX    TMP DP  RH WIND       PRES   REMARKS
FERGUS FALLS   CLOUDY    48  48 100 SE14      29.68R
WHEATON        CLOUDY    48  46  93 SE17G24   29.66R
MORRIS         CLOUDY    50  48  93 S15       29.67R FOG
ALEXANDRIA     CLOUDY    50  48  93 S13       29.70S
ELBOW LAKE     MOCLDY    49  48  95 SE20      29.67R
WADENA         CLOUDY    41  39  93 SE9       29.70R FOG
GLENWOOD       CLOUDY    50  48  93 S15       29.71F
APPLETON       CLOUDY    54  48  82 SE10G16   29.68F
BENSON         CLOUDY    52  45  76 S10G18    29.72S
ORTONVILLE     CLOUDY    46  45  93 SE13      29.66S FOG
WILLMAR        FAIR      52  48  87 S15       29.76R
$$
MNZ033>034-036-042>043-049>051-058-059-201300-
   Central Minnesota

CITY           SKY/WX    TMP DP  RH WIND       PRES   REMARKS
ST CLOUD       CLOUDY    49  45  86 S13       29.76S
6HR MIN TEMP:  46; 6HR MAX TEMP:  51;

SAUK CENTRE    PTSUNNY   46  44  95 SE7       29.74R
PAYNESVILLE    MOCLDY    49  46  88 SE13G18   29.75R
AITKIN         CLOUDY    43  34  70 E8        29.78S
PINE RIVER     CLOUDY    43  37  81 SE7       29.78S
BRAINERD       CLOUDY    45  39  79 SE9G24    29.76F
STAPLES        CLOUDY    45  43  93 SE7       29.72R
LONG PRAIRIE   CLOUDY    45  43  93 E5        29.75R
LITTLE FALLS   CLOUDY    46  41  81 SE5       29.76S
LITCHFIELD     MOCLDY    52  46  82 SE8       29.77S
BUFFALO        MOCLDY    52  44  75 SE9       29.78F
MAPLE LAKE     CLOUDY    49  45  85 SE8       29.78F
HUTCHINSON     CLOUDY    51  47  86 SE8       29.79S
$$
MNZ037-044-045-052-053-201300-
   East Central Minnesota

CITY           SKY/WX    TMP DP  RH WIND       PRES   REMARKS
PRINCETON      CLOUDY    54  45  71 SE12G20   29.78F
MORA           CLOUDY    43  37  81 E5        29.82F
CAMBRIDGE      CLOUDY    54  41  62 SE8       29.79F
RUSH CITY      CLOUDY    48  41  76 SE9       29.83S
MOOSE LAKE     CLOUDY    34  32  93 NE5       29.83S WCI  30
HINCKLEY       FAIR      46  41  81 E6        29.83S
CLOQUET        CLOUDY    37  32  81 E7        29.86F
MCGREGOR       CLOUDY    39  34  81 SE8       29.82S
$$
MNZ071>073-080-081-089-090-097-098-201300-
   Southwest Minnesota

CITY           SKY/WX    TMP DP  RH WIND       PRES   REMARKS
MONTEVIDEO     CLOUDY    52  48  87 S13       29.72R
GRANITE FALLS  CLOUDY    52  49  89 SE17G23   29.73S
CANBY          CLOUDY    58  53  82 SW17G33   29.65F
MARSHALL       CLOUDY    56  52  86 S14       29.69F
REDWOOD FALLS  CLOUDY    50  45  83 SE17      29.74F
OLIVIA         CLOUDY    50  45  81 S17       29.75R
PIPESTONE      DRIZZLE   54  48  82 S17       29.71F
WINDOM         CLOUDY    54  48  82 S14       29.76S
WORTHINGTON    CLOUDY    50  48  93 S14       29.75F
JACKSON        CLOUDY    50  45  81 S13G21    29.78F
TRACY          CLOUDY    53  50  90 S15G24    29.71F
SLAYTON        CLOUDY    53  51  93 S14G20    29.74F
$$
MNZ065>067-074>077-082>085-091>093-201300-
   South Central Minnesota

CITY           SKY/WX    TMP DP  RH WIND       PRES   REMARKS
MANKATO          N/A     50  45  83 SE14      29.82R
NEW ULM        CLOUDY    50  45  81 SE9       29.78F
ST JAMES       CLOUDY    48  45  87 SE13      29.79F
FAIRMONT       CLOUDY    49  45  86 S13       29.81R
GLENCOE        CLOUDY    52  48  87 SE12      29.78S
FARIBAULT      CLOUDY    52  46  82 SE10      29.84S
OWATONNA       CLOUDY    52  45  76 SE14G21   29.85R
WASECA         CLOUDY    46  43  87 SE13      29.85S
ALBERT LEA     CLOUDY    48  45  87 S13G20    29.86R
$$
MNZ078>079-086>088-094>096-201300-
   Southeast Minnesota

CITY           SKY/WX    TMP DP  RH WIND       PRES   REMARKS
ROCHESTER      CLOUDY    48  45  89 SE15      29.90R
6HR MIN TEMP:  46; 6HR MAX TEMP:  48;

RED WING       CLOUDY    52  43  71 SE12      29.87F
STANTON        CLOUDY    51  44  77 S12       29.83S
DODGE CENTER   CLOUDY    45  43  93 SE10      29.88R
WINONA         CLOUDY    48  41  76 CALM      29.94R
AUSTIN         CLOUDY    48  45  87 S6        29.88S
PRESTON        CLOUDY    47  43  85 SE8       29.92S
$$
ABBREVIATIONS USED IN REMARKS
   TC - TEMPERATURES IN CELSIUS
  WCI - WIND CHILL INDEX
   HX - HEAT INDEX
  VSB - VISIBILITY
$$



USA.gov is the U.S. government's official web portal to all federal, state and local government web resources and services.